INTELSAT 1-F1 1 01317U 65028A 21065.45617178 .00000113 00000-0 00000-0 0 9991 2 01317 2.5006 76.4584 0002873 38.1993 64.3022 1.00319476107831 DELTA 1 R/B(2) 1 01318U 65028B 21065.43545946 -.00000246 00000-0 00000-0 0 9991 2 01318 17.9371 79.2960 6939016 244.3330 349.4176 2.11822112 66443